Flag for U.S.A. Weather past 2 weeks in Dayton, Ohio, U.S.A.

Now
46 °F

Clear.


Feels Like: 42 °F
Forecast: 34 / 49 °F
Wind: 8 mph from South

Location: Dayton / Wright-Patterson Air Force Base

Current Time: Dec 26, 2014 at 6:34:45 PM

Latest Report: Dec 26, 2014 at 5:58 PM


Visibility: 10 mi

Pressure: 30.19 "Hg

Humidity: 67%

Dew point: 36 °F

Location of DaytonLocation

Historic Weather in Dayton — Graph

°F

Dayton temperature yesterday

Maximum temperature yesterday: 40 °F (at 3:58 PM)
Minimum temperature yesterday: 31 °F (at 11:58 PM)
Average temperature yesterday: 37 °F

Past Weeks' High & Low Weather Summary

 TemperatureHumidityPressure
High56 °F (Dec 24, 12:58 PM)100% (Dec 15, 6:58 AM)30.36 "Hg (Dec 15, 6:58 AM)
Low19 °F (Dec 12, 7:58 AM)52% (Dec 12, 2:58 PM)29.32 "Hg (Dec 24, 2:48 PM)
Average37 °F82%30.10 "Hg
* Reported Dec 11 4:58 PM — Dec 26 4:58 PM, Dayton, Weather by CustomWeather, © 2014

Note: Actual official high and low records may vary slightly from our data, if they occured in-between our weather recording intervals... More about our weather records

Advertising

Dayton weather history for previous 24 hours

 ConditionsComfort  
Time TempWeatherWind HumidityBarometerVisibility
4:58 PM
Dec 26
49 °FSunny.9 mph61%30.19 "Hg10 mi
3:58 PM50 °FSunny.8 mph63%30.19 "Hg10 mi
2:58 PM49 °FSunny.10 mph64%30.19 "Hg10 mi
1:58 PM50 °FSunny.12 mph61%30.19 "Hg10 mi
12:58 PM49 °FSunny.13 mph64%30.19 "Hg10 mi
11:58 AM45 °FSunny.10 mph71%30.24 "Hg10 mi
10:58 AM43 °FSunny.12 mph77%30.26 "Hg10 mi
9:58 AM37 °FSunny.10 mph88%30.26 "Hg10 mi
8:58 AM32 °FSunny.6 mph93%30.25 "Hg10 mi
7:58 AM30 °FSunny.6 mph94%30.24 "Hg10 mi
6:58 AM30 °FClear.6 mph93%30.24 "Hg10 mi
5:58 AM30 °FClear.7 mph95%30.25 "Hg10 mi
4:58 AM29 °FClear.3 mph93%30.24 "Hg10 mi
3:58 AM30 °FClear.5 mph92%30.24 "Hg10 mi
2:58 AM29 °FClear.3 mph93%30.23 "Hg10 mi
1:58 AM30 °FClear.2 mph91%30.20 "Hg10 mi
12:58 AM29 °FClear.3 mph93%30.20 "Hg10 mi
11:58 PM
Dec 25
31 °FClear.1 mph91%30.20 "Hg10 mi
10:58 PM33 °FClear.6 mph89%30.20 "Hg10 mi
9:58 PM34 °FClear.8 mph86%30.21 "Hg10 mi
8:58 PM34 °FClear.7 mph84%30.21 "Hg10 mi
7:58 PM35 °FPassing clouds.5 mph81%30.22 "Hg10 mi
6:58 PM39 °FOvercast.10 mph72%30.22 "Hg10 mi
Weather by CustomWeather, © 2014

See weather overviewHow to use our weather pages